Home > Weather > Guayaquil > Past weeks

Flag for Ecuador Past Weather in Guayaquil, Ecuador — Yesterday and Last 2 Weeks

Now
88 °F

Passing clouds.


Feels Like: 94 °F
Forecast: 74 / 89 °F
Wind: 8 mph from East

Location: Guayaquil / Simon Bolivar

Current Time: Jun 25, 2016 at 12:57:10 PM

Latest Report: Jun 25, 2016 at 12:00 PM


Visibility: N/A

Pressure: 29.86 "Hg

Humidity: 59%

Dew Point: 72 °F

Location of GuayaquilLocation

Past Weather in Guayaquil — Graph

°F

Guayaquil Temperature Yesterday

Maximum temperature yesterday: 90 °F (at 3:00 PM)
Minimum temperature yesterday: 75 °F (at 1:00 AM)
Average temperature yesterday: 81 °F

High & Low Weather Summary for the Past Weeks

 TemperatureHumidityPressure
High91 °F (Jun 20, 4:00 PM)89% (Jun 12, 5:00 AM)29.98 "Hg (Jun 12, 5:00 AM)
Low72 °F (Jun 11, 5:00 AM)40% (Jun 14, 10:00 AM)29.77 "Hg (Jun 20, 4:00 PM)
Average80 °F67%29.89 "Hg
* Reported Jun 10 11:00 AM — Jun 25 11:00 AM, Guayaquil, Weather by CustomWeather, © 2016

Note: Actual official high and low records may vary slightly from our data, if they occured in-between our weather recording intervals... More about our weather records

Advertising

Guayaquil Weather History for the Previous 24 Hours

Scroll right to see more
 ConditionsComfort  
Time TempWeatherWind HumidityBarometerVisibility
11:00 AM
Sat, Jun 25
84 °FPassing clouds.6 mph58%29.86 "HgN/A
10:00 AM82 °FBroken clouds.2 mph70%29.89 "HgN/A
9:00 AM79 °FBroken clouds.2 mph61%29.89 "HgN/A
8:00 AM77 °FBroken clouds.3 mph69%29.89 "HgN/A
7:00 AM73 °FScattered clouds.8 mph83%29.86 "HgN/A
6:00 AM73 °FPartly cloudy.8 mph83%29.86 "HgN/A
5:00 AM73 °FPassing clouds.3 mph83%29.83 "HgN/A
4:00 AM75 °FPassing clouds.8 mph78%29.83 "HgN/A
3:00 AM73 °FPassing clouds.9 mph83%29.86 "HgN/A
2:00 AM75 °FPassing clouds.14 mph78%29.86 "HgN/A
1:00 AM75 °FPassing clouds.15 mph78%29.86 "HgN/A
12:00 AM77 °FPassing clouds.17 mph74%29.86 "HgN/A
11:00 PM
Fri, Jun 24
79 °FPassing clouds.14 mph70%29.86 "HgN/A
10:00 PM81 °FPassing clouds.14 mph66%29.86 "HgN/A
9:00 PM82 °FPassing clouds.13 mph62%29.86 "HgN/A
8:00 PM84 °FPassing clouds.5 mphN/A29.83 "HgN/A
7:00 PM84 °FPassing clouds.3 mph66%29.83 "HgN/A
6:00 PM86 °FPartly sunny.3 mph59%29.80 "HgN/A
5:00 PM86 °FPartly sunny.6 mph59%29.80 "HgN/A
4:00 PM88 °FPartly sunny.3 mph55%29.80 "HgN/A
3:00 PM90 °FScattered clouds.6 mph52%29.80 "HgN/A
2:00 PM88 °FPartly sunny.7 mph55%29.83 "HgN/A
1:00 PM86 °FScattered clouds.6 mph59%29.86 "HgN/A
12:00 PM86 °FPassing clouds.N/A59%29.86 "HgN/A
Weather by CustomWeather, © 2016

See weather overviewHow to use our weather pages